Location: *
(44.7167°S, 168.8500°W)
Time: 04:19:43
(UTC+00:00)

Daily predictions for brighter satellites

Satellite Brightness Start Highest point End
(mag) Time Altitude Azimuth Time Altitude Azimuth Time Altitude Azimuth
RESURS DK-1 4.2 04:19:17 10° SSE 04:21:17 13° SE 04:23:16 10° ESE
Cosmos 1656 3.7 04:16:28 10° SSW 04:22:16 79° ESE 04:28:00 10° NNE
USA 306 4.0 04:18:47 10° SW 04:22:29 28° SSE 04:26:10 10° ESE
CZ-2C R/B 3.9 04:17:27 10° N 04:22:54 50° W 04:28:21 10° SSW
Cosmos 1633 4.3 04:20:06 10° NW 04:23:18 33° WSW 04:26:34 10° S
USA 307 4.0 04:22:18 10° SW 04:25:59 28° SSE 04:29:39 10° ESE
USA 281 4.4 04:21:10 10° SE 04:26:01 21° E 04:30:49 10° NNE
Landsat 5 4.4 04:28:22 10° NE 04:32:16 30° ESE 04:36:06 10° S
CZ-4C R/B 4.5 04:38:03 10° ENE 04:40:01 15° ESE 04:42:01 10° SSE
[s.n.52708] 4.3 04:38:11 10° W 04:40:43 26° SSW 04:43:02 11° SE
[s.n.52707] 4.3 04:38:17 10° W 04:40:50 26° SSW 04:43:09 11° SE
[s.n.52703] 4.3 04:38:25 10° W 04:40:57 26° SSW 04:43:16 11° SE
[s.n.52705] 4.3 04:38:31 10° W 04:41:03 26° SSW 04:43:22 11° SE
[s.n.52706] 4.3 04:38:38 10° W 04:41:10 26° SSW 04:43:28 11° SE
USA 215 3.3 04:34:41 10° ENE 04:41:13 66° SSE 04:47:46 10° SW
[s.n.52701] 4.3 04:38:45 10° W 04:41:17 26° SSW 04:43:35 12° SE
[s.n.52704] 4.3 04:38:51 10° W 04:41:23 25° SSW 04:43:41 12° SE
[s.n.52699] 4.3 04:38:58 10° W 04:41:30 25° SSW 04:43:47 12° SE
[s.n.52702] 4.3 04:39:05 10° W 04:41:37 25° SSW 04:43:54 12° SE
[s.n.52697] 4.3 04:39:12 10° W 04:41:44 25° SSW 04:44:01 12° SE
[s.n.52700] 4.3 04:39:19 10° W 04:41:50 25° SSW 04:44:07 12° SE
[s.n.52695] 4.3 04:39:26 10° W 04:41:58 25° SSW 04:44:14 12° SE
[s.n.52698] 4.3 04:39:32 10° W 04:42:04 25° SSW 04:44:20 12° SE
[s.n.52693] 4.3 04:39:39 10° W 04:42:11 25° SSW 04:44:27 12° SE
[s.n.52696] 4.3 04:39:46 10° W 04:42:18 25° SSW 04:44:33 12° SE
[s.n.52691] 4.3 04:39:53 10° W 04:42:25 25° SSW 04:44:40 12° SE
[s.n.52689] 4.3 04:40:00 10° W 04:42:32 25° SSW 04:44:47 12° SE
[s.n.52694] 4.3 04:40:07 10° W 04:42:38 25° SSW 04:44:53 12° SE
[s.n.52692] 4.3 04:40:14 10° W 04:42:45 25° SSW 04:45:00 12° SE
[s.n.52687] 4.3 04:40:21 10° W 04:42:52 25° SSW 04:45:06 12° SE
[s.n.52685] 4.3 04:40:27 10° W 04:42:59 25° SSW 04:45:13 12° SE
[s.n.52690] 4.3 04:40:34 10° W 04:43:06 25° SSW 04:45:19 12° SE
[s.n.52688] 4.4 04:40:41 10° W 04:43:12 25° SSW 04:45:26 12° SE
[s.n.52683] 4.4 04:40:48 10° WSW 04:43:20 25° SSW 04:45:33 12° SE
[s.n.52686] 4.4 04:40:56 10° WSW 04:43:27 25° SSW 04:45:39 12° SE
[s.n.52681] 4.4 04:41:03 10° WSW 04:43:34 25° SSW 04:45:46 12° SE
[s.n.52679] 4.4 04:41:09 10° WSW 04:43:40 25° SSW 04:45:53 12° SE
[s.n.52684] 4.4 04:41:16 10° WSW 04:43:48 25° SSW 04:45:59 12° SE
[s.n.52682] 4.4 04:41:23 10° WSW 04:43:54 25° SSW 04:46:06 12° SE
[s.n.52677] 4.4 04:41:30 10° WSW 04:44:01 25° SSW 04:46:13 12° SE
[s.n.52680] 4.4 04:41:37 10° WSW 04:44:09 25° SSW 04:46:20 12° SE
Cosmos 1076 Rocket 3.9 04:40:04 10° NNE 04:44:14 43° E 04:48:24 10° SSE
[s.n.52675] 4.4 04:41:44 10° WSW 04:44:15 25° SSW 04:46:26 12° SE
[s.n.52678] 4.4 04:41:51 10° WSW 04:44:23 25° SSW 04:46:33 12° SE
[s.n.52673] 4.4 04:41:59 10° WSW 04:44:30 25° SSW 04:46:41 12° SE
[s.n.52676] 4.4 04:42:06 10° WSW 04:44:37 25° SSW 04:46:47 12° SE
[s.n.52671] 4.4 04:42:13 10° WSW 04:44:44 25° SSW 04:46:54 12° SE
Cosmos 1980 Rocket 2.9 04:39:44 10° S 04:44:48 32° SE 04:49:49 10° ENE
[s.n.52669] 4.4 04:42:20 10° WSW 04:44:51 25° SSW 04:47:00 12° SE
Cosmos 1812 4.0 04:41:52 10° SSE 04:44:52 21° ESE 04:47:50 10° ENE
[s.n.52674] 4.4 04:42:27 10° WSW 04:44:58 25° SSW 04:47:07 12° SE
[s.n.52672] 4.4 04:42:33 10° WSW 04:45:04 25° SSW 04:47:13 12° SE
[s.n.52667] 4.4 04:42:41 10° WSW 04:45:12 25° SSW 04:47:21 12° SE
[s.n.52665] 4.4 04:42:48 10° WSW 04:45:19 25° SSW 04:47:28 12° SE
[s.n.52670] 4.4 04:42:56 10° WSW 04:45:26 25° SSW 04:47:35 12° SE
[s.n.52668] 4.4 04:43:03 10° WSW 04:45:34 25° SSW 04:47:41 12° SE
Cosmos 1842 Rocket 3.6 04:41:09 10° S 04:45:40 63° E 04:50:04 10° NNE
[s.n.52666] 4.4 04:43:10 10° WSW 04:45:41 25° SSW 04:47:48 12° SE
[s.n.52663] 4.4 04:43:17 10° WSW 04:45:48 25° SSW 04:47:55 12° SE
[s.n.52662] 4.4 04:43:24 10° WSW 04:45:55 24° SSW 04:48:02 12° SE
[s.n.52664] 4.4 04:43:32 10° WSW 04:46:02 24° SSW 04:48:09 12° SE
[s.n.52661] 4.4 04:43:39 10° WSW 04:46:09 24° SSW 04:48:16 13° SE
[s.n.52660] 4.4 04:43:46 10° WSW 04:46:16 24° SSW 04:48:23 13° SE
[s.n.52656] 4.4 04:43:53 10° WSW 04:46:23 24° SSW 04:48:29 13° SE
[s.n.52658] 4.4 04:44:01 10° WSW 04:46:31 24° SSW 04:48:37 13° SE
[s.n.52659] 4.4 04:44:07 10° WSW 04:46:38 24° SSW 04:48:43 13° SE
SKYMED 2 4.3 04:42:23 10° N 04:46:43 60° W 04:51:06 10° SSW
[s.n.52657] 4.4 04:44:16 10° WSW 04:46:46 24° SSW 04:48:51 13° SE
H-2A R/B 4.5 04:46:17 10° S 04:49:49 33° WSW 04:53:19 10° NW
Cosmos 2322 Rocket 4.1 04:49:48 10° SSE 04:51:13 11° SE 04:51:57 11° SE
Cosmos 2369 4.1 04:47:34 10° SSW 04:53:02 42° ESE 04:58:24 10° NE
Cosmos 1340 Rocket 2.8 04:49:31 10° N 04:53:32 74° E 04:57:38 10° SSE
SJ 16-02 3.4 04:52:35 10° SSE 04:52:55 11° SE 04:52:55 11° SE
Cosmos 2082 Rocket 2.9 04:49:48 10° NNE 04:54:48 33° ENE 04:59:05 13° SE
USA 308 3.7 04:52:57 10° SW 04:56:51 34° SSE 04:59:17 19° ESE
Cosmos 2221 2.8 04:52:39 10° SSW 04:57:07 76° W 05:01:32 10° N
CBERS 1 LM4 rocket 4.3 04:52:57 10° SSE 04:57:48 76° ENE 05:02:41 10° N
SMAP 3.9 04:54:03 10° SSE 04:58:16 31° E 05:02:25 10° NNE
Cosmos 1302 Rocket 4.0 04:55:57 10° NNW 05:01:11 89° E 05:06:32 10° SSE
H-2A R/B 4.3 05:04:51 11° SSE 05:04:51 11° SSE 05:05:05 10° SSE
Cosmos 1697 Rocket 2.6 04:58:29 10° SSW 05:04:14 82° ESE 05:09:55 10° NNE
Cosmos 1000 Rocket 4.4 05:00:55 10° N 05:07:02 69° E 05:13:16 10° SSE
Cosmos 2360 4.2 05:01:42 10° SSW 05:07:31 84° ESE 05:13:15 10° NNE
GENESIS II 4.4 05:04:21 10° SSW 05:08:00 45° SE 05:10:30 18° ENE
Meteor 1-31 Rocket 3.5 05:07:09 10° S 05:11:05 55° WSW 05:14:57 10° NNW
CZ-2C R/B 4.1 05:07:34 10° S 05:12:06 41° WSW 05:16:42 10° NW
Cosmos 1486 Rocket 4.1 05:09:34 10° SSW 05:14:52 53° ESE 05:20:06 10° NE
Cosmos 1939 Rocket 2.8 05:14:47 10° S 05:18:43 80° WSW 05:22:36 10° NNW
Lacrosse 5 3.4 05:15:54 10° SW 05:19:52 22° S 05:21:34 19° SE
Cosmos 1933 3.3 05:16:05 10° S 05:20:12 86° W 05:24:17 10° N
USA 305 3.1 05:16:16 10° SW 05:20:24 48° SSE 05:21:57 32° E
Cosmos 1992 Rocket 4.0 05:16:07 10° N 05:21:17 61° ENE 05:25:25 16° SSE
Cosmos 1782 2.7 05:18:49 10° S 05:22:52 78° E 05:26:50 10° NNE
CORIOLIS 4.4 05:19:36 10° SSE 05:24:57 49° E 05:30:14 10° N
COSMOS 2406 3.2 05:21:32 10° NNW 05:27:15 87° ENE 05:32:11 14° SSE
SL-16 R/B 3.4 05:26:44 10° S 05:30:51 23° SE 05:30:51 23° SE
Cosmos 2173 Rocket 4.2 05:25:30 10° S 05:31:56 77° W 05:38:13 10° N
BREEZE M DEB (TANK) 1.8 05:30:15 10° WNW 05:32:09 69° N 05:32:09 69° N
Lacrosse 5 rocket 3.3 05:30:57 10° SSW 05:33:18 15° S 05:33:30 15° S
Cosmos 2016 Rocket 3.9 05:27:30 10° S 05:33:47 74° E 05:40:05 10° NNE
Cosmos 724 4.5 05:27:51 10° NW 05:34:00 79° SW 05:38:44 18° SSE
CZ-4B R/B 2.5 05:33:55 28° SSE 05:35:46 76° ENE 05:39:36 10° N
Lacrosse 4 Rocket 4.2 05:35:58 10° SW 05:37:20 11° SW 05:38:42 10° SSW
Cosmos 2233 Rocket 4.1 05:35:25 10° S 05:41:34 51° ESE 05:47:41 10° NNE
Cosmos 1503 Rocket 4.0 05:39:01 10° SSW 05:44:10 56° ESE 05:46:48 28° NE
Cosmos 1802 Rocket 4.2 05:38:40 10° S 05:45:10 78° W 05:51:37 10° N
Cosmos 1864 Rocket 4.4 05:40:59 10° S 05:47:13 87° E 05:53:23 10° N
Meteor 2-3 Rocket 4.5 05:42:06 10° NNW 05:47:35 54° WSW 05:53:12 10° S
Cosmos 1833 Rocket 3.8 05:45:40 10° NW 05:51:00 41° SW 05:56:13 11° SSE
SL-08 R/B 4.4 05:45:13 10° S 05:51:34 85° E 05:57:43 10° N
Cosmos 2278 3.6 05:46:28 10° SSW 05:52:09 63° ESE 05:54:46 32° NE
Cosmos 2151 4.1 05:48:50 10° NNW 05:53:01 46° WSW 05:57:15 10° S
ATLAS 2AS CENTAUR R/B 3.8 05:46:26 10° SW 05:53:12 47° WNW 06:00:19 10° N
Cosmos 2084 4.4 05:48:45 10° N 05:52:38 37° NE 05:52:38 37° NE
H-2A R/B 1.9 05:48:40 10° SSE 05:53:41 83° WSW 05:58:38 10° NNW
CZ-4B DEB 4.4 05:53:33 46° E 05:54:01 47° E 05:59:18 10° N
ADEOS 4.3 05:51:05 10° S 05:56:15 54° WSW 06:01:22 10° NW
Cosmos 2360 Rocket 4.1 05:53:07 10° S 05:54:40 15° SSE 05:54:40 15° SSE
RESURS DK-1 2.3 05:55:40 10° SSW 05:59:55 87° WNW 06:00:20 71° NNE
USA 306 2.8 05:58:15 10° SW 06:02:19 80° SSW 06:02:19 80° SSW
USA 307 3.0 06:01:50 10° SW 06:05:36 67° SSW 06:05:36 67° SSW
CZ-2D R/B 3.8 06:06:28 43° SSW 06:07:24 55° WSW 06:11:10 10° NNW
Meteor 2-6 Rocket 4.1 06:03:46 10° S 06:09:29 88° W 06:14:59 10° N
GEOS 3 Rocket 3.5 06:10:34 65° ENE 06:10:49 66° NE 06:16:01 10° NNW
USA 281 3.3 06:05:45 17° SSE 06:11:08 79° WSW 06:17:44 10° NNW
CZ-2C R/B 3.5 06:09:04 10° NNW 06:10:14 14° NNW 06:10:14 14° NNW
Cosmos 1862 4.3 06:20:07 10° NNW 06:23:27 46° WNW 06:23:27 46° WNW
USA 215 4.3 06:18:11 10° NNE 06:24:24 43° NW 06:30:39 10° WSW
ATLAS 3B CENTAUR R/B 4.3 06:19:53 10° WNW 06:26:12 20° NNW 06:28:41 17° NNE
ARGOS 3.2 06:27:22 53° S 06:28:41 77° WSW 06:34:05 10° NNW
Cosmos 1980 Rocket 3.3 06:23:37 10° SW 06:28:55 42° WNW 06:34:09 10° N
SJ 16-02 3.6 06:28:50 10° SSW 06:29:55 17° SSW 06:29:55 17° SSW
USA 308 4.4 06:32:30 10° WSW 06:35:04 34° WSW 06:35:04 34° WSW
Cosmos 2322 Rocket 3.7 06:31:15 10° SSW 06:33:47 25° S 06:33:47 25° S
Cosmos 2082 Rocket 3.3 06:33:29 10° NW 06:38:46 40° SW 06:40:57 29° S
Cosmos 2333 Rocket 4.5 06:34:41 10° S 06:35:14 12° S 06:35:14 12° S
Lacrosse 5 4.0 06:59:00 10° SW 07:00:46 21° SSW 07:00:46 21° SSW
SL-16 R/B 3.9 07:10:12 10° SSW 07:12:45 27° SW 07:12:45 27° SW
